Location: Asheville, NC
(35.6000°N, 82.5500°W)
Time: 03:55:53
(UTC-04:00)

N. Korean satellite - Pass Details

Date: 14 October 2017
Orbit: 459 x 517 km, 97.2° (Epoch: 16 October)

Event Time Altitude Azimuth Distance (km) Brightness Sun altitude
Rises 19:21:29 0° 158° (SSE) 2,550 10.1 -6.0°
Reaches altitude 10° 19:23:35 10° 154° (SSE) 1,663 9.1 -6.5°
Maximum altitude 19:27:04 54° 76° (ENE) 590 6.6 -7.2°
Drops below altitude 10° 19:30:31 10° 359° (N) 1,644 9.2 -7.9°
Sets 19:32:35 0° 354° (N) 2,517 10.2 -8.3°
